• In Uzbekistan
  • List of Countries
  • For 7 days
  • Water Temperature
  • Satellite Maps
  • Weather Map
  • Weather Widgets
  • user-avatar
    Login

    Hourly Weather Kipungo

    Today, 23 September, Saturday

    Time Temperature Precipitation Wind Pressure Humidity
    00:00 +24°C° 0 mm 1 mps 653 mmHg 44%
    01:00 +23°C° 0 mm 1 mps 653 mmHg 50%
    02:00 +22°C° 0 mm 1 mps 653 mmHg 52%
    03:00 +22°C° 0 mm 1 mps 653 mmHg 54%
    04:00 +21°C° 0 mm 1 mps 652 mmHg 56%
    05:00 +22°C° 0 mm 1 mps 653 mmHg 51%
    06:00 +22°C° 0 mm 1 mps 654 mmHg 46%
    07:00 +23°C° 0 mm 1 mps 654 mmHg 41%
    08:00 +27°C° 0 mm 2 mps 655 mmHg 33%
    09:00 +31°C° 0 mm 3 mps 656 mmHg 25%
    10:00 +36°C° 0 mm 4 mps 657 mmHg 18%
    11:00 +37°C° 0 mm 4 mps 656 mmHg 16%
    12:00 +38°C° 0 mm 3 mps 656 mmHg 14%
    13:00 +40°C° 0 mm 3 mps 655 mmHg 11%
    14:00 +40°C° 0 mm 3 mps 655 mmHg 11%
    15:00 +39°C° 0 mm 3 mps 654 mmHg 10%
    16:00 +39°C° 0 mm 3 mps 654 mmHg 10%
    17:00 +36°C° 0 mm 2 mps 654 mmHg 13%
    18:00 +32°C° 0 mm 2 mps 654 mmHg 17%
    19:00 +29°C° 0 mm 2 mps 654 mmHg 20%
    20:00 +28°C° 0 mm 2 mps 654 mmHg 30%
    21:00 +26°C° 0 mm 2 mps 654 mmHg 40%
    22:00 +25°C° 0 mm 3 mps 654 mmHg 50%
    23:00 +24°C° 0 mm 2 mps 654 mmHg 54%

    Tomorrow, 24 September, Sunday

    Time Temperature Precipitation Wind Pressure Humidity
    00:00 +23°C° 0 mm 2 mps 654 mmHg 59%
    01:00 +21°C° 0 mm 2 mps 653 mmHg 63%
    02:00 +21°C° 0 mm 1 mps 653 mmHg 65%
    03:00 +20°C° 0 mm 1 mps 653 mmHg 67%
    04:00 +20°C° 0 mm 1 mps 653 mmHg 69%
    05:00 +21°C° 0 mm 1 mps 653 mmHg 64%
    06:00 +22°C° 0 mm 1 mps 654 mmHg 60%
    07:00 +23°C° 0 mm 1 mps 655 mmHg 56%
    08:00 +27°C° 0 mm 1 mps 656 mmHg 43%
    09:00 +31°C° 0 mm 1 mps 657 mmHg 30%
    10:00 +37°C° 0 mm 2 mps 658 mmHg 17%
    11:00 +38°C° 0 mm 2 mps 657 mmHg 15%
    12:00 +39°C° 0 mm 2 mps 656 mmHg 13%
    13:00 +40°C° 0 mm 3 mps 655 mmHg 11%
    14:00 +40°C° 0 mm 3 mps 655 mmHg 10%
    15:00 +40°C° 0 mm 2 mps 654 mmHg 10%
    16:00 +40°C° 0 mm 2 mps 654 mmHg 9%
    17:00 +36°C° 0 mm 2 mps 654 mmHg 14%
    18:00 +32°C° 0 mm 2 mps 653 mmHg 18%
    19:00 +29°C° 0 mm 2 mps 653 mmHg 23%
    20:00 +28°C° 0 mm 3 mps 653 mmHg 34%
    21:00 +26°C° 0 mm 3 mps 654 mmHg 44%
    22:00 +24°C° 0 mm 3 mps 654 mmHg 55%
    23:00 +22°C° 0 mm 3 mps 653 mmHg 60%

    Day after tomorrow, 25 September, Monday

    Time Temperature Precipitation Wind Pressure Humidity
    00:00 +21°C° 0 mm 2 mps 653 mmHg 65%
    01:00 +20°C° 0 mm 2 mps 653 mmHg 69%
    02:00 +20°C° 0 mm 2 mps 653 mmHg 71%
    03:00 +19°C° 0 mm 2 mps 652 mmHg 73%
    04:00 +20°C° 0 mm 1 mps 652 mmHg 75%
    05:00 +20°C° 0 mm 1 mps 653 mmHg 72%
    06:00 +21°C° 0 mm 1 mps 653 mmHg 68%
    07:00 +21°C° 0 mm 1 mps 654 mmHg 65%
    08:00 +25°C° 0 mm 1 mps 655 mmHg 50%
    09:00 +29°C° 0 mm 1 mps 655 mmHg 35%
    10:00 +34°C° 0 mm 1 mps 656 mmHg 21%
    11:00 +36°C° 0 mm 2 mps 656 mmHg 18%
    12:00 +38°C° 0 mm 2 mps 655 mmHg 15%
    13:00 +40°C° 0 mm 2 mps 655 mmHg 12%
    14:00 +40°C° 0 mm 1 mps 654 mmHg 12%
    15:00 +40°C° 0 mm 1 mps 654 mmHg 12%
    16:00 +39°C° 0 mm 1 mps 653 mmHg 12%
    17:00 +36°C° 0 mm 2 mps 653 mmHg 19%
    18:00 +33°C° 0 mm 3 mps 653 mmHg 25%
    19:00 +29°C° 0 mm 4 mps 653 mmHg 32%
    20:00 +27°C° 0 mm 4 mps 653 mmHg 41%
    21:00 +25°C° 0 mm 3 mps 653 mmHg 49%
    22:00 +22°C° 0 mm 3 mps 653 mmHg 58%
    23:00 +21°C° 0 mm 3 mps 652 mmHg 63%

    26 September, Tuesday

    Time Temperature Precipitation Wind Pressure Humidity
    00:00 +20°C° 0 mm 2 mps 652 mmHg 68%
    01:00 +19°C° 0 mm 2 mps 652 mmHg 73%
    02:00 +19°C° 0 mm 2 mps 651 mmHg 75%
    03:00 +18°C° 0 mm 2 mps 651 mmHg 77%
    04:00 +19°C° 0 mm 1 mps 651 mmHg 79%
    05:00 +20°C° 0 mm 1 mps 652 mmHg 72%
    06:00 +21°C° 0 mm 1 mps 653 mmHg 66%
    07:00 +22°C° 0 mm 1 mps 653 mmHg 60%
    08:00 +25°C° 0 mm 1 mps 654 mmHg 47%
    09:00 +29°C° 0 mm 2 mps 655 mmHg 33%
    10:00 +32°C° 0 mm 2 mps 655 mmHg 19%
    11:00 +35°C° 0 mm 2 mps 655 mmHg 16%
    12:00 +37°C° 0 mm 2 mps 654 mmHg 13%
    13:00 +39°C° 0 mm 2 mps 654 mmHg 10%
    14:00 +39°C° 0 mm 2 mps 653 mmHg 10%
    15:00 +38°C° 0 mm 2 mps 653 mmHg 10%
    16:00 +38°C° 0 mm 2 mps 652 mmHg 10%
    17:00 +35°C° 0 mm 2 mps 652 mmHg 17%
    18:00 +31°C° 0 mm 3 mps 652 mmHg 24%
    19:00 +28°C° 0 mm 4 mps 652 mmHg 31%
    20:00 +27°C° 0 mm 3 mps 653 mmHg 40%
    21:00 +25°C° 0 mm 3 mps 653 mmHg 49%
    22:00 +22°C° 0 mm 3 mps 653 mmHg 57%
    23:00 +21°C° 0 mm 3 mps 652 mmHg 62%

    27 September, Wednesday

    Time Temperature Precipitation Wind Pressure Humidity
    00:00 +20°C° 0 mm 2 mps 652 mmHg 67%
    01:00 +19°C° 0 mm 2 mps 652 mmHg 72%
    02:00 +18°C° 0 mm 2 mps 652 mmHg 75%
    03:00 +19°C° 0 mm 1 mps 652 mmHg 78%
    04:00 +18°C° 0 mm 1 mps 651 mmHg 81%
    05:00 +19°C° 0 mm 1 mps 652 mmHg 76%
    06:00 +20°C° 0 mm 1 mps 653 mmHg 71%
    07:00 +21°C° 0 mm 1 mps 654 mmHg 67%
    08:00 +25°C° 0 mm 1 mps 654 mmHg 51%
    09:00 +29°C° 0 mm 1 mps 655 mmHg 35%
    10:00 +34°C° 0 mm 2 mps 656 mmHg 19%
    11:00 +36°C° 0 mm 2 mps 656 mmHg 16%
    12:00 +37°C° 0 mm 2 mps 655 mmHg 13%
    13:00 +39°C° 0 mm 2 mps 655 mmHg 10%
    14:00 +39°C° 0 mm 2 mps 654 mmHg 9%
    15:00 +39°C° 0 mm 2 mps 654 mmHg 9%
    16:00 +37°C° 0 mm 1 mps 653 mmHg 9%
    17:00 +35°C° 0 mm 2 mps 653 mmHg 14%
    18:00 +31°C° 0 mm 3 mps 653 mmHg 20%
    19:00 +28°C° 0 mm 3 mps 653 mmHg 25%
    20:00 +27°C° 0 mm 3 mps 653 mmHg 34%
    21:00 +25°C° 0 mm 3 mps 653 mmHg 43%
    22:00 +22°C° 0 mm 3 mps 653 mmHg 52%
    23:00 +21°C° 0 mm 2 mps 653 mmHg 57%

    28 September, Thursday

    Time Temperature Precipitation Wind Pressure Humidity
    00:00 +20°C° 0 mm 2 mps 653 mmHg 62%
    01:00 +20°C° 0 mm 1 mps 653 mmHg 67%
    02:00 +20°C° 0 mm 1 mps 652 mmHg 70%
    03:00 +19°C° 0 mm 1 mps 652 mmHg 73%
    04:00 +18°C° 0 mm 1 mps 652 mmHg 76%
    05:00 +19°C° 0 mm 1 mps 653 mmHg 70%
    06:00 +20°C° 0 mm 1 mps 654 mmHg 64%
    07:00 +21°C° 0 mm 1 mps 654 mmHg 58%
    08:00 +25°C° 0 mm 1 mps 655 mmHg 45%
    09:00 +29°C° 0 mm 2 mps 656 mmHg 31%
    10:00 +34°C° 0 mm 2 mps 657 mmHg 18%
    11:00 +35°C° 0 mm 2 mps 656 mmHg 16%
    12:00 +37°C° 0 mm 2 mps 655 mmHg 15%
    13:00 +39°C° 0 mm 2 mps 655 mmHg 13%
    14:00 +38°C° 0 mm 2 mps 654 mmHg 14%
    15:00 +37°C° 0 mm 2 mps 654 mmHg 15%
    16:00 +37°C° 0 mm 2 mps 653 mmHg 15%
    17:00 +34°C° 0 mm 2 mps 653 mmHg 19%
    18:00 +31°C° 0 mm 2 mps 653 mmHg 22%
    19:00 +29°C° 0 mm 2 mps 653 mmHg 26%
    20:00 +28°C° 0.1 mm 2 mps 653 mmHg 32%
    21:00 +26°C° 0.1 mm 2 mps 654 mmHg 38%
    22:00 +24°C° 0.1 mm 2 mps 654 mmHg 43%
    23:00 +24°C° 0 mm 2 mps 654 mmHg 47%
    Show more